QPF
0.00 0.00 0.00 0.00 0.00 0.00 0.00 0.00 0.00 0.00 0.00 0.00 0.00 0.00 0.00 0.00 0.00 0.00 0.00 0.00 0.00 0.00 0.01 0.01 0.03 0.03 0.02 0.02 0.02 0.02 0.01 0.00 0.00 0.00 0.00 0.01 0.01 0.01 0.00 0.00 0.00 0.00 0.00 0.00
0.00 0.00 0.00 0.00 0.00 0.00 0.00 0.00 0.00 0.00 0.00 0.00 0.00 0.00 0.00 0.00 0.00 0.00 0.00 0.00 0.00 0.00 0.00 0.01 0.02 0.04 0.03 0.02 0.02 0.02 0.01 0.01 0.00 0.00 0.00 0.00 0.00 0.01 0.01 0.01 0.00 0.01 0.01 0.01
0.00 0.00 0.00 0.00 0.00 0.00 0.00 0.00 0.00 0.00 0.00 0.00 0.00 0.00 0.00 0.00 0.00 0.00 0.00 0.00 0.00 0.00 0.00 0.00 0.01 0.02 0.03 0.02 0.02 0.02 0.01 0.01 0.01 0.00 0.00 0.00 0.00 0.01 0.01 0.01 0.00 0.00 0.00 0.00
0.00 0.00 0.00 0.00 0.00 0.00 0.00 0.00 0.00 0.00 0.00 0.00 0.00 0.00 0.00 0.00 0.00 0.00 0.00 0.00 0.00 0.00 0.00 0.00 0.01 0.01 0.01 0.02 0.02 0.02 0.02 0.01 0.01 0.01 0.01 0.01 0.00 0.00 0.00 0.00 0.00 0.00 0.00 0.00
0.00 0.00 0.00 0.00 0.00 0.00 0.00 0.00 0.00 0.00 0.00 0.00 0.00 0.00 0.00 0.00 0.00 0.00 0.00 0.00 0.00 0.00 0.00 0.00 0.00 0.01 0.01 0.01 0.02 0.02 0.02 0.01 0.01 0.01 0.01 0.00 0.00 0.00 0.00 0.00 0.00 0.00 0.00 0.00
0.01 0.01 0.00 0.00 0.00 0.00 0.00 0.00 0.00 0.00 0.00 0.00 0.00 0.00 0.00 0.00 0.00 0.00 0.00 0.00 0.00 0.00 0.00 0.00 0.00 0.00 0.01 0.01 0.01 0.01 0.01 0.01 0.01 0.01 0.01 0.00 0.00 0.00 0.00 0.00 0.01 0.01 0.00 0.01
0.01 0.01 0.00 0.00 0.00 0.00 0.00 0.00 0.00 0.00 0.00 0.00 0.00 0.00 0.00 0.00 0.00 0.00 0.00 0.00 0.00 0.00 0.00 0.00 0.00 0.00 0.01 0.00 0.01 0.02 0.02 0.02 0.01 0.01 0.01 0.01 0.01 0.01 0.01 0.01 0.01 0.01 0.01 0.01
0.00 0.01 0.00 0.00 0.00 0.00 0.00 0.00 0.00 0.00 0.00 0.00 0.00 0.00 0.00 0.00 0.00 0.00 0.00 0.00 0.00 0.00 0.00 0.00 0.00 0.00 0.01 0.00 0.01 0.01 0.02 0.02 0.02 0.02 0.02 0.02 0.02 0.02 0.02 0.01 0.01 0.01 0.02 0.01
0.01 0.00 0.00 0.00 0.00 0.00 0.00 0.00 0.00 0.00 0.00 0.00 0.00 0.00 0.00 0.00 0.00 0.00 0.00 0.00 0.00 0.00 0.00 0.00 0.00 0.01 0.01 0.01 0.01 0.01 0.01 0.01 0.02 0.02 0.02 0.02 0.03 0.03 0.03 0.03 0.03 0.02 0.02 0.02
0.02 0.01 0.00 0.00 0.00 0.00 0.00 0.00 0.00 0.00 0.00 0.00 0.00 0.00 0.00 0.00 0.00 0.00 0.00 0.00 0.00 0.00 0.00 0.00 0.00 0.01 0.01 0.01 0.01 0.01 0.00 0.01 0.01 0.01 0.02 0.02 0.02 0.03 0.03 0.03 0.03 0.03 0.04 0.04
0.01 0.01 0.01 0.00 0.00 0.00 0.00 0.00 0.00 0.00 0.00 0.00 0.00 0.00 0.00 0.00 0.00 0.00 0.00 0.00 0.00 0.01 0.01 0.01 0.01 0.01 0.01 0.02 0.02 0.01 0.01 0.01 0.01 0.01 0.02 0.02 0.02 0.02 0.02 0.02 0.02 0.02 0.03 0.03
0.00 0.00 0.00 0.00 0.00 0.00 0.00 0.00 0.00 0.00 0.00 0.00 0.00 0.00 0.00 0.00 0.00 0.00 0.00 0.00 0.00 0.01 0.01 0.01 0.02 0.02 0.01 0.01 0.02 0.02 0.02 0.02 0.02 0.02 0.02 0.02 0.02 0.02 0.02 0.02 0.02 0.02 0.03 0.04
0.00 0.00 0.00 0.00 0.00 0.00 0.00 0.00 0.00 0.00 0.00 0.00 0.00 0.00 0.00 0.00 0.00 0.00 0.00 0.00 0.00 0.00 0.01 0.01 0.01 0.01 0.01 0.01 0.01 0.02 0.02 0.02 0.02 0.03 0.02 0.02 0.03 0.03 0.03 0.02 0.02 0.03 0.04 0.04
0.00 0.00 0.00 0.00 0.00 0.00 0.00 0.00 0.00 0.00 0.00 0.00 0.00 0.00 0.00 0.00 0.00 0.00 0.00 0.00 0.00 0.01 0.01 0.01 0.00 0.00 0.00 0.00 0.01 0.02 0.04 0.05 0.04 0.03 0.03 0.03 0.03 0.02 0.02 0.02 0.02 0.03 0.04 0.04
0.00 0.00 0.00 0.00 0.00 0.00 0.00 0.00 0.00 0.00 0.00 0.00 0.00 0.00 0.00 0.00 0.00 0.00 0.00 0.00 0.00 0.01 0.01 0.01 0.00 0.00 0.00 0.00 0.00 0.01 0.01 0.04 0.07 0.06 0.05 0.04 0.04 0.03 0.02 0.02 0.02 0.03 0.02 0.02
0.00 0.00 0.00 0.00 0.00 0.00 0.00 0.00 0.00 0.00 0.00 0.00 0.00 0.00 0.00 0.00 0.00 0.00 0.00 0.00 0.00 0.01 0.01 0.01 0.01 0.01 0.00 0.00 0.00 0.00 0.01 0.01 0.02 0.04 0.05 0.05 0.05 0.04 0.02 0.01 0.02 0.02 0.02 0.02
0.01 0.01 0.00 0.00 0.00 0.00 0.00 0.00 0.00 0.00 0.00 0.00 0.00 0.00 0.00 0.00 0.00 0.00 0.00 0.00 0.00 0.01 0.01 0.01 0.01 0.01 0.01 0.01 0.01 0.01 0.02 0.02 0.02 0.02 0.03 0.04 0.04 0.04 0.03 0.02 0.02 0.02 0.02 0.02
0.01 0.01 0.00 0.00 0.00 0.00 0.00 0.00 0.00 0.00 0.00 0.00 0.00 0.00 0.01 0.01 0.01 0.01 0.01 0.00 0.01 0.01 0.01 0.02 0.02 0.01 0.01 0.02 0.02 0.03 0.04 0.04 0.04 0.04 0.04 0.04 0.04 0.04 0.04 0.02 0.02 0.02 0.02 0.02
0.01 0.00 0.00 0.00 0.00 0.00 0.00 0.00 0.00 0.00 0.00 0.00 0.00 0.00 0.01 0.01 0.01 0.01 0.01 0.01 0.01 0.01 0.01 0.01 0.01 0.02 0.02 0.02 0.03 0.03 0.04 0.06 0.06 0.06 0.06 0.06 0.05 0.05 0.04 0.02 0.01 0.01 0.01 0.01
0.01 0.00 0.00 0.00 0.00 0.00 0.00 0.00 0.00 0.00 0.00 0.00 0.00 0.00 0.00 0.01 0.01 0.01 0.01 0.01 0.01 0.01 0.01 0.01 0.01 0.01 0.01 0.01 0.02 0.04 0.03 0.04 0.05 0.06 0.07 0.07 0.06 0.06 0.05 0.03 0.02 0.01 0.02 0.02
0.01 0.00 0.00 0.00 0.00 0.00 0.00 0.00 0.00 0.00 0.00 0.00 0.00 0.00 0.00 0.01 0.01 0.01 0.01 0.01 0.01 0.01 0.01 0.01 0.01 0.01 0.01 0.00 0.01 0.02 0.03 0.04 0.04 0.04 0.04 0.05 0.06 0.06 0.06 0.05 0.04 0.04 0.04 0.03
0.01 0.01 0.01 0.01 0.00 0.00 0.00 0.00 0.00 0.00 0.00 0.00 0.00 0.00 0.00 0.01 0.01 0.02 0.01 0.02 0.02 0.02 0.01 0.01 0.01 0.01 0.01 0.00 0.00 0.00 0.01 0.02 0.03 0.04 0.05 0.05 0.05 0.04 0.04 0.04 0.04 0.04 0.03 0.03
0.00 0.01 0.01 0.01 0.01 0.00 0.00 0.00 0.00 0.00 0.00 0.00 0.00 0.00 0.01 0.01 0.01 0.02 0.02 0.02 0.02 0.02 0.02 0.02 0.02 0.01 0.01 0.00 0.00 0.00 0.00 0.00 0.01 0.01 0.02 0.03 0.03 0.03 0.03 0.03 0.03 0.02 0.02 0.02
0.00 0.00 0.01 0.01 0.00 0.00 0.00 0.00 0.00 0.00 0.00 0.00 0.00 0.00 0.00 0.00 0.01 0.01 0.02 0.03 0.03 0.02 0.01 0.01 0.01 0.01 0.01 0.01 0.00 0.00 0.00 0.00 0.00 0.00 0.00 0.01 0.01 0.01 0.01 0.02 0.02 0.02 0.02 0.02
0.00 0.00 0.00 0.00 0.00 0.00 0.00 0.00 0.00 0.00 0.00 0.00 0.00 0.00 0.00 0.00 0.00 0.01 0.01 0.02 0.03 0.03 0.02 0.01 0.01 0.01 0.01 0.01 0.01 0.01 0.00 0.00 0.00 0.00 0.00 0.01 0.01 0.01 0.01 0.00 0.00 0.01 0.01 0.01
0.01 0.01 0.01 0.01 0.01 0.00 0.00 0.00 0.00 0.00 0.00 0.00 0.00 0.00 0.00 0.00 0.00 0.00 0.01 0.02 0.02 0.03 0.02 0.02 0.01 0.01 0.01 0.01 0.01 0.01 0.01 0.01 0.01 0.01 0.01 0.00 0.00 0.01 0.01 0.01 0.00 0.01 0.01 0.01
0.01 0.01 0.02 0.02 0.02 0.01 0.01 0.01 0.00 0.00 0.00 0.00 0.01 0.01 0.01 0.01 0.01 0.01 0.01 0.01 0.02 0.02 0.02 0.02 0.01 0.01 0.01 0.01 0.01 0.01 0.01 0.01 0.00 0.00 0.00 0.00 0.00 0.01 0.01 0.01 0.01 0.01 0.01 0.01
MSLP
1018.96 1019.29 1019.60 1019.85 1020.02 1020.07 1019.98 1019.74 1019.35 1018.84 1018.23 1017.56 1016.89 1016.26 1015.70 1015.25 1014.92 1014.71 1014.60 1014.57 1014.61 1014.69 1014.79 1014.92 1015.07 1015.24 1015.46 1015.71 1016.02 1016.36 1016.74 1017.13 1017.51 1017.89 1018.23 1018.55 1018.83 1019.08 1019.31 1019.54 1019.76 1019.99 1020.21 1020.44
1018.72 1019.00 1019.24 1019.43 1019.54 1019.54 1019.41 1019.16 1018.78 1018.29 1017.72 1017.10 1016.48 1015.90 1015.38 1014.95 1014.63 1014.42 1014.30 1014.26 1014.29 1014.37 1014.49 1014.64 1014.82 1015.03 1015.28 1015.58 1015.91 1016.28 1016.68 1017.09 1017.51 1017.93 1018.32 1018.69 1019.04 1019.37 1019.67 1019.95 1020.22 1020.48 1020.71 1020.94
1018.51 1018.72 1018.90 1019.03 1019.08 1019.04 1018.90 1018.65 1018.29 1017.83 1017.31 1016.75 1016.18 1015.64 1015.15 1014.73 1014.41 1014.18 1014.04 1013.98 1014.00 1014.07 1014.20 1014.37 1014.58 1014.83 1015.11 1015.44 1015.80 1016.19 1016.61 1017.04 1017.48 1017.93 1018.37 1018.79 1019.21 1019.60 1019.96 1020.31 1020.62 1020.90 1021.16 1021.39
1018.32 1018.47 1018.60 1018.68 1018.70 1018.64 1018.50 1018.26 1017.93 1017.52 1017.06 1016.55 1016.02 1015.51 1015.04 1014.62 1014.29 1014.03 1013.86 1013.78 1013.77 1013.84 1013.97 1014.15 1014.38 1014.65 1014.95 1015.30 1015.67 1016.07 1016.49 1016.93 1017.38 1017.85 1018.32 1018.79 1019.25 1019.70 1020.13 1020.53 1020.89 1021.22 1021.50 1021.75
1018.18 1018.28 1018.36 1018.41 1018.42 1018.36 1018.23 1018.02 1017.73 1017.38 1016.95 1016.49 1016.00 1015.52 1015.05 1014.63 1014.28 1013.99 1013.79 1013.68 1013.65 1013.69 1013.81 1013.99 1014.23 1014.50 1014.81 1015.15 1015.51 1015.89 1016.30 1016.73 1017.18 1017.65 1018.14 1018.64 1019.15 1019.65 1020.14 1020.60 1021.03 1021.40 1021.74 1022.03
1018.05 1018.11 1018.17 1018.21 1018.22 1018.18 1018.08 1017.91 1017.67 1017.36 1016.98 1016.56 1016.10 1015.63 1015.17 1014.74 1014.36 1014.05 1013.81 1013.67 1013.61 1013.64 1013.74 1013.91 1014.13 1014.39 1014.68 1014.99 1015.33 1015.68 1016.05 1016.45 1016.88 1017.35 1017.85 1018.38 1018.93 1019.49 1020.03 1020.56 1021.05 1021.50 1021.89 1022.25
1017.92 1017.96 1018.01 1018.05 1018.08 1018.07 1018.00 1017.88 1017.69 1017.42 1017.09 1016.69 1016.25 1015.79 1015.33 1014.88 1014.48 1014.15 1013.89 1013.73 1013.65 1013.66 1013.74 1013.89 1014.09 1014.32 1014.57 1014.84 1015.13 1015.43 1015.76 1016.13 1016.54 1016.99 1017.50 1018.05 1018.64 1019.25 1019.87 1020.46 1021.03 1021.55 1022.03 1022.46
1017.75 1017.78 1017.83 1017.89 1017.95 1017.98 1017.96 1017.88 1017.73 1017.51 1017.20 1016.83 1016.40 1015.94 1015.47 1015.02 1014.61 1014.26 1013.99 1013.81 1013.73 1013.72 1013.79 1013.92 1014.09 1014.28 1014.49 1014.71 1014.95 1015.20 1015.48 1015.80 1016.19 1016.63 1017.15 1017.74 1018.37 1019.04 1019.73 1020.40 1021.05 1021.65 1022.20 1022.71
1017.54 1017.56 1017.62 1017.71 1017.80 1017.87 1017.91 1017.87 1017.76 1017.57 1017.29 1016.93 1016.51 1016.04 1015.57 1015.11 1014.70 1014.35 1014.08 1013.90 1013.81 1013.81 1013.87 1013.98 1014.12 1014.28 1014.45 1014.62 1014.80 1015.00 1015.24 1015.54 1015.90 1016.35 1016.89 1017.51 1018.20 1018.94 1019.69 1020.45 1021.17 1021.85 1022.48 1023.06
1017.30 1017.31 1017.39 1017.51 1017.64 1017.76 1017.83 1017.84 1017.76 1017.59 1017.32 1016.96 1016.54 1016.08 1015.60 1015.15 1014.74 1014.40 1014.14 1013.98 1013.90 1013.90 1013.97 1014.07 1014.19 1014.33 1014.46 1014.59 1014.73 1014.89 1015.10 1015.37 1015.73 1016.20 1016.76 1017.43 1018.18 1018.98 1019.81 1020.64 1021.44 1022.19 1022.88 1023.52
1017.06 1017.07 1017.16 1017.31 1017.48 1017.64 1017.75 1017.79 1017.73 1017.57 1017.31 1016.95 1016.53 1016.06 1015.58 1015.13 1014.73 1014.41 1014.17 1014.03 1013.98 1014.00 1014.08 1014.18 1014.30 1014.42 1014.53 1014.63 1014.74 1014.88 1015.07 1015.34 1015.71 1016.19 1016.80 1017.52 1018.32 1019.19 1020.10 1020.99 1021.86 1022.67 1023.41 1024.08
1016.88 1016.90 1017.01 1017.18 1017.38 1017.57 1017.70 1017.76 1017.71 1017.55 1017.28 1016.92 1016.48 1016.01 1015.53 1015.08 1014.70 1014.39 1014.19 1014.08 1014.06 1014.10 1014.20 1014.32 1014.45 1014.56 1014.66 1014.75 1014.85 1014.98 1015.17 1015.44 1015.83 1016.34 1016.99 1017.75 1018.62 1019.55 1020.51 1021.46 1022.38 1023.23 1024.00 1024.69
1016.80 1016.84 1016.97 1017.17 1017.39 1017.59 1017.73 1017.79 1017.74 1017.57 1017.28 1016.90 1016.45 1015.96 1015.48 1015.03 1014.66 1014.38 1014.19 1014.11 1014.12 1014.20 1014.33 1014.47 1014.61 1014.73 1014.84 1014.93 1015.03 1015.16 1015.36 1015.65 1016.06 1016.60 1017.28 1018.09 1019.00 1019.98 1020.99 1021.98 1022.93 1023.81 1024.60 1025.30
1016.88 1016.94 1017.09 1017.30 1017.52 1017.72 1017.86 1017.90 1017.83 1017.63 1017.32 1016.91 1016.43 1015.93 1015.44 1014.99 1014.63 1014.35 1014.19 1014.14 1014.18 1014.29 1014.44 1014.61 1014.77 1014.91 1015.03 1015.14 1015.26 1015.41 1015.62 1015.93 1016.36 1016.93 1017.64 1018.47 1019.41 1020.42 1021.46 1022.48 1023.45 1024.35 1025.15 1025.85
1017.11 1017.20 1017.36 1017.57 1017.79 1017.97 1018.07 1018.08 1017.97 1017.73 1017.38 1016.94 1016.43 1015.91 1015.40 1014.95 1014.58 1014.32 1014.17 1014.13 1014.19 1014.33 1014.51 1014.71 1014.90 1015.08 1015.23 1015.37 1015.51 1015.68 1015.92 1016.25 1016.70 1017.28 1018.00 1018.85 1019.80 1020.82 1021.86 1022.90 1023.88 1024.79 1025.60 1026.31
1017.47 1017.58 1017.75 1017.95 1018.13 1018.27 1018.33 1018.29 1018.12 1017.84 1017.44 1016.96 1016.42 1015.87 1015.34 1014.87 1014.50 1014.23 1014.09 1014.07 1014.14 1014.30 1014.51 1014.74 1014.97 1015.19 1015.39 1015.57 1015.75 1015.96 1016.23 1016.58 1017.04 1017.63 1018.34 1019.19 1020.13 1021.14 1022.18 1023.21 1024.20 1025.11 1025.93 1026.66
1017.89 1018.01 1018.17 1018.34 1018.48 1018.56 1018.56 1018.45 1018.23 1017.89 1017.44 1016.92 1016.35 1015.77 1015.22 1014.73 1014.35 1014.07 1013.93 1013.90 1013.99 1014.17 1014.41 1014.68 1014.96 1015.23 1015.48 1015.72 1015.96 1016.22 1016.52 1016.90 1017.37 1017.95 1018.66 1019.48 1020.39 1021.37 1022.39 1023.41 1024.39 1025.32 1026.15 1026.90
1018.29 1018.41 1018.54 1018.65 1018.73 1018.75 1018.67 1018.50 1018.21 1017.82 1017.34 1016.78 1016.18 1015.58 1015.01 1014.50 1014.10 1013.81 1013.66 1013.63 1013.73 1013.92 1014.19 1014.50 1014.84 1015.17 1015.50 1015.81 1016.12 1016.44 1016.79 1017.19 1017.68 1018.26 1018.94 1019.73 1020.60 1021.55 1022.53 1023.52 1024.50 1025.42 1026.28 1027.05
1018.58 1018.67 1018.75 1018.80 1018.81 1018.75 1018.60 1018.36 1018.03 1017.60 1017.08 1016.51 1015.89 1015.27 1014.69 1014.17 1013.75 1013.45 1013.28 1013.25 1013.35 1013.56 1013.85 1014.21 1014.61 1015.02 1015.43 1015.83 1016.22 1016.61 1017.02 1017.47 1017.97 1018.55 1019.21 1019.95 1020.79 1021.68 1022.62 1023.58 1024.53 1025.45 1026.33 1027.14
1018.70 1018.73 1018.74 1018.72 1018.65 1018.52 1018.31 1018.03 1017.66 1017.21 1016.69 1016.11 1015.49 1014.87 1014.28 1013.76 1013.32 1013.00 1012.81 1012.77 1012.86 1013.08 1013.41 1013.81 1014.27 1014.77 1015.27 1015.76 1016.25 1016.72 1017.20 1017.70 1018.23 1018.81 1019.45 1020.16 1020.94 1021.78 1022.67 1023.59 1024.52 1025.44 1026.33 1027.18
1018.59 1018.56 1018.49 1018.39 1018.26 1018.07 1017.83 1017.52 1017.14 1016.69 1016.18 1015.61 1015.01 1014.40 1013.82 1013.28 1012.83 1012.49 1012.28 1012.21 1012.30 1012.52 1012.87 1013.32 1013.84 1014.41 1015.01 1015.60 1016.19 1016.76 1017.31 1017.87 1018.43 1019.02 1019.65 1020.33 1021.07 1021.86 1022.70 1023.58 1024.48 1025.39 1026.29 1027.17
1018.29 1018.17 1018.03 1017.86 1017.67 1017.45 1017.18 1016.87 1016.51 1016.08 1015.60 1015.07 1014.49 1013.90 1013.32 1012.78 1012.31 1011.94 1011.70 1011.61 1011.68 1011.90 1012.26 1012.74 1013.32 1013.96 1014.64 1015.34 1016.02 1016.68 1017.32 1017.94 1018.55 1019.15 1019.78 1020.44 1021.14 1021.89 1022.69 1023.53 1024.41 1025.31 1026.21 1027.11
1017.81 1017.62 1017.41 1017.19 1016.96 1016.72 1016.46 1016.17 1015.83 1015.44 1015.00 1014.51 1013.96 1013.39 1012.81 1012.26 1011.77 1011.38 1011.10 1010.98 1011.02 1011.22 1011.58 1012.09 1012.70 1013.41 1014.16 1014.95 1015.72 1016.47 1017.19 1017.87 1018.53 1019.17 1019.80 1020.45 1021.13 1021.85 1022.62 1023.43 1024.29 1025.18 1026.09 1027.00
1017.22 1016.96 1016.70 1016.44 1016.20 1015.96 1015.71 1015.45 1015.15 1014.81 1014.41 1013.95 1013.43 1012.87 1012.30 1011.73 1011.22 1010.78 1010.47 1010.31 1010.31 1010.50 1010.85 1011.36 1012.01 1012.75 1013.57 1014.42 1015.27 1016.11 1016.90 1017.65 1018.35 1019.03 1019.68 1020.33 1021.01 1021.71 1022.46 1023.26 1024.10 1024.99 1025.91 1026.84
1016.58 1016.27 1015.98 1015.70 1015.45 1015.22 1015.00 1014.76 1014.50 1014.19 1013.82 1013.38 1012.87 1012.32 1011.74 1011.15 1010.61 1010.15 1009.79 1009.59 1009.56 1009.72 1010.06 1010.57 1011.23 1012.01 1012.87 1013.78 1014.69 1015.58 1016.44 1017.24 1018.00 1018.71 1019.40 1020.07 1020.75 1021.46 1022.21 1023.01 1023.85 1024.75 1025.67 1026.62
1015.95 1015.60 1015.28 1015.00 1014.75 1014.52 1014.31 1014.09 1013.84 1013.54 1013.18 1012.75 1012.24 1011.68 1011.09 1010.49 1009.92 1009.43 1009.04 1008.82 1008.76 1008.90 1009.23 1009.74 1010.40 1011.20 1012.08 1013.03 1013.98 1014.92 1015.83 1016.68 1017.48 1018.24 1018.96 1019.66 1020.37 1021.10 1021.87 1022.68 1023.55 1024.46 1025.40 1026.38
1015.33 1014.97 1014.63 1014.34 1014.08 1013.84 1013.62 1013.39 1013.12 1012.81 1012.43 1011.99 1011.47 1010.89 1010.28 1009.67 1009.09 1008.59 1008.20 1007.96 1007.91 1008.04 1008.36 1008.87 1009.55 1010.35 1011.25 1012.21 1013.19 1014.17 1015.11 1016.00 1016.84 1017.64 1018.40 1019.14 1019.89 1020.66 1021.46 1022.30 1023.20 1024.14 1025.11 1026.12
Thickness
5700 5701 5700 5699 5699 5699 5699 5703 5699 5703 5703 5708 5712 5710 5711 5710 5709 5706 5705 5705 5704 5702 5702 5702 5701 5702 5701 5700 5700 5698 5696 5695 5695 5695 5693 5692 5690 5689 5688 5687 5686 5685 5684 5682
5691 5694 5694 5693 5698 5698 5698 5700 5700 5700 5701 5713 5714 5713 5710 5709 5706 5703 5703 5703 5703 5702 5702 5701 5701 5701 5700 5699 5698 5697 5695 5694 5693 5692 5690 5689 5687 5686 5685 5684 5683 5682 5680 5679
5685 5688 5686 5686 5699 5698 5698 5702 5701 5698 5705 5709 5707 5706 5706 5706 5704 5703 5702 5702 5702 5702 5701 5700 5701 5701 5698 5698 5697 5696 5694 5692 5690 5689 5687 5686 5685 5683 5681 5680 5679 5677 5676 5675
5679 5678 5668 5696 5707 5703 5699 5701 5705 5705 5706 5706 5706 5706 5708 5707 5704 5702 5701 5701 5700 5701 5700 5700 5700 5699 5698 5696 5694 5693 5692 5691 5689 5687 5685 5684 5682 5680 5679 5678 5676 5673 5672 5670
5672 5670 5679 5690 5697 5696 5693 5695 5704 5702 5701 5702 5704 5702 5703 5705 5703 5702 5701 5700 5700 5700 5699 5699 5698 5697 5695 5693 5691 5690 5689 5688 5688 5686 5683 5681 5680 5678 5676 5675 5672 5670 5668 5666
5666 5662 5666 5688 5698 5699 5693 5688 5703 5702 5698 5697 5697 5692 5698 5702 5701 5700 5699 5698 5697 5696 5695 5694 5693 5693 5690 5689 5688 5686 5686 5686 5686 5684 5681 5679 5678 5676 5674 5671 5669 5666 5663 5662
5662 5661 5675 5692 5693 5690 5676 5688 5699 5699 5696 5695 5693 5696 5699 5699 5697 5696 5695 5693 5692 5691 5689 5688 5688 5687 5685 5685 5684 5684 5684 5683 5682 5681 5679 5677 5674 5672 5670 5667 5665 5662 5659 5657
5662 5657 5668 5687 5684 5683 5690 5697 5696 5695 5694 5692 5693 5693 5693 5692 5691 5690 5689 5688 5686 5685 5684 5683 5682 5681 5680 5680 5681 5680 5679 5678 5678 5677 5675 5673 5670 5668 5666 5663 5660 5657 5655 5653
5670 5673 5684 5687 5687 5690 5691 5690 5690 5689 5689 5687 5686 5686 5686 5686 5686 5685 5684 5683 5681 5680 5679 5678 5677 5676 5675 5675 5675 5675 5675 5674 5673 5672 5671 5669 5666 5663 5661 5658 5656 5654 5651 5649
5667 5674 5677 5679 5682 5683 5683 5683 5684 5684 5683 5682 5681 5681 5680 5680 5680 5680 5679 5678 5676 5675 5673 5672 5672 5671 5670 5670 5669 5670 5670 5669 5668 5667 5665 5664 5662 5660 5657 5655 5653 5650 5648 5645
5663 5670 5670 5673 5675 5677 5677 5678 5677 5677 5677 5677 5676 5675 5675 5675 5675 5675 5674 5673 5671 5670 5668 5667 5666 5666 5665 5665 5664 5665 5665 5664 5663 5661 5660 5658 5655 5654 5653 5652 5650 5647 5645 5643
5659 5668 5668 5671 5674 5673 5671 5670 5671 5670 5670 5670 5670 5669 5669 5669 5669 5669 5668 5667 5665 5663 5662 5661 5661 5660 5659 5659 5658 5659 5659 5659 5657 5655 5653 5652 5649 5646 5643 5643 5641 5639 5638 5636
5660 5662 5663 5665 5666 5666 5665 5665 5665 5665 5665 5664 5664 5664 5663 5663 5663 5662 5662 5661 5660 5658 5656 5655 5655 5653 5653 5653 5653 5653 5653 5652 5650 5649 5648 5646 5645 5642 5639 5634 5631 5630 5629 5627
5650 5650 5650 5654 5656 5658 5658 5659 5660 5660 5659 5659 5658 5658 5657 5657 5656 5655 5655 5655 5654 5652 5650 5649 5648 5647 5647 5647 5646 5646 5646 5644 5644 5643 5642 5641 5639 5637 5635 5633 5629 5626 5622 5620
5641 5643 5646 5649 5650 5650 5651 5652 5651 5652 5652 5651 5651 5651 5650 5650 5649 5648 5648 5647 5646 5645 5644 5643 5641 5641 5641 5641 5640 5640 5639 5638 5637 5637 5635 5634 5633 5631 5629 5627 5624 5622 5618 5614
5636 5637 5639 5640 5642 5644 5645 5645 5645 5645 5645 5645 5645 5644 5644 5643 5642 5641 5640 5639 5638 5638 5637 5636 5635 5635 5634 5633 5633 5633 5632 5630 5629 5629 5628 5626 5625 5624 5622 5620 5617 5615 5612 5609
5627 5630 5631 5632 5635 5637 5639 5640 5640 5639 5639 5639 5638 5638 5637 5635 5634 5633 5632 5631 5630 5630 5630 5629 5628 5627 5626 5626 5626 5626 5625 5623 5620 5620 5620 5619 5617 5616 5614 5612 5610 5607 5605 5602
5623 5626 5627 5628 5629 5630 5632 5633 5633 5632 5632 5631 5630 5629 5628 5628 5627 5625 5625 5624 5623 5622 5622 5622 5621 5620 5619 5619 5618 5618 5617 5616 5614 5613 5612 5610 5609 5608 5606 5604 5602 5600 5597 5593
5615 5616 5618 5620 5621 5623 5624 5624 5624 5624 5623 5622 5621 5621 5620 5620 5619 5618 5617 5615 5615 5614 5614 5614 5611 5611 5611 5610 5609 5609 5608 5607 5605 5605 5603 5600 5600 5599 5597 5595 5593 5591 5588 5584
5605 5607 5609 5611 5612 5613 5614 5614 5615 5614 5614 5613 5613 5612 5612 5611 5610 5609 5609 5608 5607 5606 5606 5604 5603 5602 5602 5601 5599 5600 5599 5598 5597 5596 5594 5593 5591 5590 5588 5586 5584 5582 5579 5576
5596 5597 5598 5600 5601 5603 5604 5604 5604 5604 5604 5604 5604 5604 5603 5603 5601 5601 5600 5599 5599 5597 5595 5593 5594 5593 5592 5591 5589 5590 5590 5589 5588 5587 5585 5583 5582 5580 5579 5577 5575 5573 5570 5568
5586 5587 5588 5589 5591 5592 5594 5594 5595 5595 5594 5594 5594 5594 5593 5593 5592 5592 5592 5591 5589 5586 5586 5586 5585 5583 5582 5580 5581 5581 5581 5580 5579 5577 5575 5574 5572 5571 5569 5567 5566 5564 5561 5559
5575 5576 5577 5579 5580 5582 5583 5583 5584 5584 5584 5585 5585 5584 5584 5583 5583 5583 5582 5581 5580 5577 5577 5578 5576 5573 5572 5572 5572 5572 5571 5570 5569 5567 5566 5564 5562 5561 5559 5557 5555 5553 5551 5549
5562 5564 5566 5568 5569 5571 5572 5573 5573 5574 5574 5574 5574 5574 5573 5572 5572 5573 5572 5570 5568 5566 5567 5566 5564 5563 5562 5564 5563 5563 5562 5560 5559 5557 5555 5553 5552 5550 5549 5547 5545 5543 5540 5538
5550 5552 5554 5556 5558 5560 5561 5562 5562 5563 5563 5564 5564 5563 5562 5561 5561 5560 5560 5559 5557 5556 5556 5555 5554 5553 5554 5554 5553 5552 5551 5550 5549 5546 5544 5542 5541 5539 5538 5536 5534 5532 5529 5528
5539 5540 5541 5543 5545 5547 5548 5549 5549 5550 5551 5551 5551 5551 5550 5550 5549 5548 5548 5548 5547 5545 5545 5545 5544 5543 5544 5544 5542 5541 5541 5539 5538 5536 5534 5532 5530 5529 5527 5525 5523 5521 5519 5517
5527 5528 5529 5531 5533 5534 5536 5537 5537 5538 5539 5539 5540 5539 5538 5538 5537 5537 5536 5536 5535 5535 5534 5534 5533 5533 5533 5532 5531 5531 5530 5529 5528 5526 5524 5522 5521 5519 5517 5515 5514 5512 5510 5508